,,,PA_Meas_PMT16A,,PR_Meas_QMR101_102,,RH_Meas_QMH101,,SR_Meas_QMS101,,TA_Meas_QMH101,,GenWind,,GenWind,
date,time,status,PA,status,PR,status,RH,status,SR,status,TA,status,DirAvg,status,SpdAvg,
2009-02-11, 00:00:04,VALID,1010.85,VALID,0,VALID,94.0255,VALID,0.105969,VALID,24.1793,VALID,319,VALID,0,
2009-02-11, 00:01:04,VALID,1010.84,VALID,0,VALID,93.9417,VALID,0.105969,VALID,24.1599,VALID,320,VALID,0,
2009-02-11, 00:02:04,VALID,1010.83,VALID,0,VALID,93.8883,VALID,0.105969,VALID,24.1599,VALID,332,VALID,0,
2009-02-11, 00:03:04,VALID,1010.82,VALID,0,VALID,93.9035,VALID,0,VALID,24.1599,VALID,332,VALID,0,
2009-02-11, 00:04:04,VALID,1010.81,VALID,0,VALID,93.8502,VALID,0.105969,VALID,24.1599,VALID,349,VALID,0.407422,
2009-02-11, 00:05:04,VALID,1010.8,VALID,0,VALID,93.8196,VALID,0.105969,VALID,24.1599,VALID,350,VALID,0.387109,
2009-02-11, 00:06:04,VALID,1010.81,VALID,0,VALID,93.873,VALID,0.105969,VALID,24.1599,VALID,350,VALID,0.467187,
2009-02-11, 00:07:04,VALID,1010.81,VALID,0,VALID,94.0713,VALID,0.105969,VALID,24.1599,VALID,350,VALID,0.291016,
2009-02-11, 00:08:04,VALID,1010.79,VALID,0,VALID,94.0484,VALID,0.105969,VALID,24.1404,VALID,350,VALID,0.0980469,
2009-02-11, 00:09:04,VALID,1010.81,VALID,0,VALID,94.1704,VALID,0.105969,VALID,24.1404,VALID,350,VALID,0,
2009-02-11, 00:10:04,VALID,1010.78,VALID,0,VALID,94.1704,VALID,0.105969,VALID,24.1209,VALID,350,VALID,0,
2009-02-11, 00:11:04,VALID,1010.8,VALID,0,VALID,94.2162,VALID,0.105969,VALID,24.0801,VALID,333,VALID,0,
2009-02-11, 00:12:04,VALID,1010.78,VALID,0,VALID,94.3229,VALID,0,VALID,24.1227,VALID,333,VALID,0,
2009-02-11, 00:13:04,VALID,1010.79,VALID,0,VALID,94.445,VALID,0,VALID,24.1227,VALID,333,VALID,0,
2009-02-11, 00:14:04,VALID,1010.81,VALID,0,VALID,94.4297,VALID,0,VALID,24.144,VALID,333,VALID,0.174609,
2009-02-11, 00:15:04,VALID,1010.78,VALID,0,VALID,94.3992,VALID,0,VALID,24.1422,VALID,333,VALID,0.028125,
2009-02-11, 00:16:04,VALID,1010.78,VALID,0,VALID,94.3153,VALID,0,VALID,24.1422,VALID,333,VALID,0.567187,
2009-02-11, 00:17:04,VALID,1010.78,VALID,0,VALID,94.2391,VALID,0,VALID,24.1422,VALID,328,VALID,0.220313,
2009-02-11, 00:18:04,VALID,1010.76,VALID,0,VALID,94.1399,VALID,0,VALID,24.1422,VALID,334,VALID,0.381641,
2009-02-11, 00:19:04,VALID,1010.76,VALID,0,VALID,93.9035,VALID,0,VALID,24.1617,VALID,340,VALID,0.480469,
2009-02-11, 00:20:04,VALID,1010.74,VALID,0,VALID,93.8196,VALID,0,VALID,24.1617,VALID,353,VALID,0.440234,
2009-02-11, 00:21:04,VALID,1010.73,VALID,0,VALID,93.7815,VALID,0,VALID,24.1812,VALID,336,VALID,0.502734,
2009-02-11, 00:22:04,VALID,1010.71,VALID,0,VALID,93.7739,VALID,0,VALID,24.1812,VALID,325,VALID,0.447266,
2009-02-11, 00:23:04,VALID,1010.69,VALID,0,VALID,93.812,VALID,0,VALID,24.1812,VALID,348,VALID,0.366016,
2009-02-11, 00:24:04,VALID,1010.7,VALID,0,VALID,93.8196,VALID,0,VALID,24.2025,VALID,305,VALID,0.4125,
2009-02-11, 00:25:04,VALID,1010.69,VALID,0,VALID,93.8502,VALID,0,VALID,24.2007,VALID,319,VALID,0.288281,
2009-02-11, 00:26:04,VALID,1010.67,VALID,0,VALID,93.8273,VALID,0,VALID,24.2007,VALID,322,VALID,0.189844,
2009-02-11, 00:27:04,VALID,1010.66,VALID,0,VALID,93.873,VALID,0,VALID,24.1812,VALID,331,VALID,0.4625,
2009-02-11, 00:28:04,VALID,1010.66,VALID,0,VALID,93.8196,VALID,0,VALID,24.1617,VALID,339,VALID,0.389453,
2009-02-11, 00:29:04,VALID,1010.65,VALID,0,VALID,93.9264,VALID,0,VALID,24.1617,VALID,340,VALID,0,
2009-02-11, 00:30:04,VALID,1010.63,VALID,0,VALID,93.8349,VALID,0,VALID,24.1617,VALID,348,VALID,0.6375,
2009-02-11, 00:31:04,VALID,1010.62,VALID,0,VALID,93.8578,VALID,0,VALID,24.1422,VALID,350,VALID,0.327344,
2009-02-11, 00:32:04,VALID,1010.61,VALID,0,VALID,93.873,VALID,0,VALID,24.1227,VALID,337,VALID,0.755469,
2009-02-11, 00:33:04,VALID,1010.58,VALID,0,VALID,93.8578,VALID,0,VALID,24.1032,VALID,352,VALID,0.552734,
2009-02-11, 00:34:04,VALID,1010.56,VALID,0,VALID,93.9417,VALID,0,VALID,24.1032,VALID,323,VALID,0.21875,
2009-02-11, 00:35:04,VALID,1010.54,VALID,0,VALID,94.0027,VALID,0,VALID,24.1032,VALID,325,VALID,0.397656,
2009-02-11, 00:36:04,VALID,1010.51,VALID,0,VALID,94.0789,VALID,0,VALID,24.1051,VALID,342,VALID,0.245703,
2009-02-11, 00:37:04,VALID,1010.49,VALID,0,VALID,94.1399,VALID,0,VALID,24.0643,VALID,332,VALID,0.676562,
2009-02-11, 00:38:04,VALID,1010.49,VALID,0,VALID,93.5527,VALID,0,VALID,24.0448,VALID,348,VALID,0.549219,
2009-02-11, 00:39:04,VALID,1010.43,VALID,0,VALID,93.4917,VALID,0,VALID,24.0253,VALID,357,VALID,0.675391,
2009-02-11, 00:40:04,VALID,1010.42,VALID,0,VALID,93.4612,VALID,0,VALID,24.0253,VALID,320,VALID,0.515234,
2009-02-11, 00:41:04,VALID,1010.42,VALID,0,VALID,93.4994,VALID,0,VALID,24.0058,VALID,322,VALID,0.341016,
2009-02-11, 00:42:04,VALID,1010.38,VALID,0,VALID,93.568,VALID,0,VALID,23.9863,VALID,322,VALID,0.0601562,
2009-02-11, 00:43:04,VALID,1010.38,VALID,0,VALID,93.5756,VALID,0,VALID,23.9863,VALID,321,VALID,0,
2009-02-11, 00:44:04,VALID,1010.38,VALID,0,VALID,93.568,VALID,0,VALID,23.9668,VALID,321,VALID,0.0015625,
2009-02-11, 00:45:04,VALID,1010.37,VALID,0,VALID,93.6137,VALID,0,VALID,23.9668,VALID,308,VALID,0.515234,
2009-02-11, 00:46:04,VALID,1010.33,VALID,0,VALID,93.5832,VALID,0,VALID,23.9473,VALID,311,VALID,0.309766,
2009-02-11, 00:47:04,VALID,1010.33,VALID,0,VALID,93.5756,VALID,0,VALID,23.9473,VALID,311,VALID,0,
2009-02-11, 00:48:04,VALID,1010.35,VALID,0,VALID,93.5222,VALID,0,VALID,23.9473,VALID,352,VALID,0.533203,
2009-02-11, 00:49:04,VALID,1010.35,VALID,0,VALID,93.4841,VALID,0,VALID,23.9278,VALID,340,VALID,0.232031,
2009-02-11, 00:50:04,VALID,1010.38,VALID,0,VALID,93.4841,VALID,0,VALID,23.9278,VALID,339,VALID,0.0523437,
2009-02-11, 00:51:04,VALID,1010.36,VALID,0,VALID,93.4689,VALID,0,VALID,23.9278,VALID,295,VALID,0.289844,
2009-02-11, 00:52:04,VALID,1010.36,VALID,0,VALID,93.4536,VALID,0,VALID,23.9473,VALID,295,VALID,0.319922,
2009-02-11, 00:53:04,VALID,1010.37,VALID,0,VALID,93.4384,VALID,0,VALID,23.9278,VALID,296,VALID,0,
2009-02-11, 00:54:04,VALID,1010.35,VALID,0,VALID,93.446,VALID,0,VALID,23.9278,VALID,291,VALID,0.222266,
2009-02-11, 00:55:04,VALID,1010.37,VALID,0,VALID,93.4307,VALID,0,VALID,23.9278,VALID,283,VALID,0.0894531,
2009-02-11, 00:56:04,VALID,1010.36,VALID,0,VALID,93.4079,VALID,0,VALID,23.9278,VALID,293,VALID,0.602344,
2009-02-11, 00:57:04,VALID,1010.35,VALID,0,VALID,93.3621,VALID,0.105969,VALID,23.9455,VALID,293,VALID,0.00195313,
2009-02-11, 00:58:04,VALID,1010.32,VALID,0,VALID,93.3621,VALID,0,VALID,23.965,VALID,293,VALID,0,
2009-02-11, 00:59:04,VALID,1010.33,VALID,0,VALID,93.324,VALID,0,VALID,23.9455,VALID,293,VALID,0.203125,
2009-02-11, 01:00:04,VALID,1010.33,VALID,0,VALID,93.2782,VALID,0,VALID,23.9455,VALID,293,VALID,0.232812,
2009-02-11, 01:01:04,VALID,1010.36,VALID,0,VALID,93.3163,VALID,0,VALID,23.9065,VALID,295,VALID,0.470703,
2009-02-11, 01:02:04,VALID,1010.31,VALID,0,VALID,93.3773,VALID,0.105969,VALID,23.9065,VALID,299,VALID,0,
2009-02-11, 01:03:04,VALID,1010.34,VALID,0,VALID,93.4231,VALID,0.105969,VALID,23.8871,VALID,299,VALID,0.00429688,
2009-02-11, 01:04:04,VALID,1010.3,VALID,0,VALID,93.5146,VALID,0.105969,VALID,23.8481,VALID,300,VALID,0.14375,
2009-02-11, 01:05:04,VALID,1010.28,VALID,0,VALID,93.6519,VALID,0.105969,VALID,23.7896,VALID,316,VALID,0.119531,
2009-02-11, 01:06:04,VALID,1010.26,VALID,0,VALID,93.7586,VALID,0.105969,VALID,23.7701,VALID,341,VALID,0.444141,
2009-02-11, 01:07:04,VALID,1010.26,VALID,0,VALID,93.8883,VALID,0,VALID,23.7525,VALID,341,VALID,0.0695312,
2009-02-11, 01:08:04,VALID,1010.26,VALID,0,VALID,93.9722,VALID,0,VALID,23.7117,VALID,345,VALID,0.552344,
2009-02-11, 01:09:04,VALID,1010.25,VALID,0,VALID,94.0865,VALID,0.105969,VALID,23.6727,VALID,343,VALID,0.335938,
2009-02-11, 01:10:04,VALID,1010.27,VALID,0,VALID,94.1857,VALID,0.105969,VALID,23.6532,VALID,343,VALID,0.158203,
2009-02-11, 01:11:04,VALID,1010.26,VALID,0,VALID,94.2924,VALID,0.105969,VALID,23.6338,VALID,343,VALID,0,
2009-02-11, 01:12:04,VALID,1010.26,VALID,0,VALID,94.3916,VALID,0,VALID,23.6161,VALID,343,VALID,0,
2009-02-11, 01:13:04,VALID,1010.22,VALID,0,VALID,94.4907,VALID,0,VALID,23.5966,VALID,320,VALID,0.190625,
2009-02-11, 01:14:04,VALID,1010.25,VALID,0,VALID,94.5593,VALID,0,VALID,23.5753,VALID,323,VALID,0.272656,
2009-02-11, 01:15:04,VALID,1010.23,VALID,0,VALID,94.6508,VALID,0,VALID,23.5771,VALID,346,VALID,0.601172,
2009-02-11, 01:16:04,VALID,1010.2,VALID,0,VALID,94.689,VALID,0,VALID,23.5576,VALID,346,VALID,0.196875,
2009-02-11, 01:17:04,VALID,1010.19,VALID,0,VALID,94.7347,VALID,0,VALID,23.5576,VALID,349,VALID,0.513672,
2009-02-11, 01:18:04,VALID,1010.18,VALID,0,VALID,94.7881,VALID,0,VALID,23.5576,VALID,344,VALID,0.385938,
2009-02-11, 01:19:04,VALID,1010.14,VALID,0,VALID,94.811,VALID,0,VALID,23.5381,VALID,343,VALID,0.132031,
2009-02-11, 01:20:04,VALID,1010.15,VALID,0,VALID,94.8568,VALID,0,VALID,23.5186,VALID,317,VALID,0.222656,
2009-02-11, 01:21:04,VALID,1010.15,VALID,0,VALID,94.8873,VALID,0,VALID,23.5186,VALID,317,VALID,0.0539063,
2009-02-11, 01:22:04,VALID,1010.16,VALID,0,VALID,94.933,VALID,0,VALID,23.5186,VALID,294,VALID,0.359375,
2009-02-11, 01:23:04,VALID,1010.16,VALID,0,VALID,94.9483,VALID,0,VALID,23.5186,VALID,294,VALID,0.167578,
2009-02-11, 01:24:04,VALID,1010.14,VALID,0,VALID,94.9788,VALID,0,VALID,23.4992,VALID,310,VALID,0.332422,
2009-02-11, 01:25:04,VALID,1010.14,VALID,0,VALID,94.994,VALID,0,VALID,23.4992,VALID,333,VALID,0.473828,
2009-02-11, 01:26:04,VALID,1010.15,VALID,0,VALID,94.994,VALID,0,VALID,23.4992,VALID,334,VALID,0.3375,
2009-02-11, 01:27:04,VALID,1010.12,VALID,0,VALID,94.9864,VALID,0.105969,VALID,23.4974,VALID,328,VALID,0.408984,
2009-02-11, 01:28:04,VALID,1010.13,VALID,0,VALID,95.0245,VALID,0.105969,VALID,23.4974,VALID,323,VALID,0.314063,
2009-02-11, 01:29:04,VALID,1010.09,VALID,0,VALID,95.0245,VALID,0,VALID,23.4779,VALID,342,VALID,0.396484,
2009-02-11, 01:30:04,VALID,1010.12,VALID,0,VALID,95.0169,VALID,0,VALID,23.4779,VALID,342,VALID,0.198047,
2009-02-11, 01:31:04,VALID,1010.12,VALID,0,VALID,95.0245,VALID,0.105969,VALID,23.4566,VALID,342,VALID,0.414063,
2009-02-11, 01:32:04,VALID,1010.11,VALID,0,VALID,95.0245,VALID,0,VALID,23.4584,VALID,342,VALID,0,
2009-02-11, 01:33:04,VALID,1010.1,VALID,0,VALID,95.0245,VALID,0.105969,VALID,23.4584,VALID,342,VALID,0.0914062,
2009-02-11, 01:34:04,VALID,1010.12,VALID,0,VALID,95.055,VALID,0.105969,VALID,23.4389,VALID,342,VALID,0.205078,
2009-02-11, 01:35:04,VALID,1010.11,VALID,0,VALID,95.0855,VALID,0.105969,VALID,23.4389,VALID,338,VALID,0.557422,
2009-02-11, 01:36:04,VALID,1010.11,VALID,0,VALID,95.0931,VALID,0.105969,VALID,23.4389,VALID,338,VALID,0.0398437,
2009-02-11, 01:37:04,VALID,1010.14,VALID,0,VALID,95.0703,VALID,0.105969,VALID,23.4194,VALID,335,VALID,0.00117188,
2009-02-11, 01:38:04,VALID,1010.15,VALID,0,VALID,95.0779,VALID,0.105969,VALID,23.4194,VALID,331,VALID,0.489062,
2009-02-11, 01:39:04,VALID,1010.11,VALID,0,VALID,95.0931,VALID,0.105969,VALID,23.4,VALID,332,VALID,0.128906,
2009-02-11, 01:40:04,VALID,1010.14,VALID,0,VALID,95.0931,VALID,0,VALID,23.4,VALID,332,VALID,0.110937,
2009-02-11, 01:41:04,VALID,1010.14,VALID,0,VALID,95.1008,VALID,0.105969,VALID,23.4,VALID,338,VALID,0.444922,
2009-02-11, 01:42:04,VALID,1010.09,VALID,0,VALID,95.177,VALID,0.105969,VALID,23.3805,VALID,319,VALID,0.316016,
2009-02-11, 01:43:04,VALID,1010.12,VALID,0,VALID,95.5736,VALID,0.105969,VALID,23.3805,VALID,319,VALID,0,
2009-02-11, 01:44:04,VALID,1010.08,VALID,0,VALID,95.4287,VALID,0.105969,VALID,23.3805,VALID,319,VALID,0,
2009-02-11, 01:45:04,VALID,1010.08,VALID,0,VALID,95.4134,VALID,0.105969,VALID,23.361,VALID,320,VALID,0.470703,
2009-02-11, 01:46:04,VALID,1010.06,VALID,0,VALID,95.4134,VALID,0.211938,VALID,23.3805,VALID,322,VALID,0.523828,
2009-02-11, 01:47:04,VALID,1010.05,VALID,0,VALID,95.3829,VALID,0.105969,VALID,23.361,VALID,311,VALID,0.469922,
2009-02-11, 01:48:04,VALID,1010.05,VALID,0,VALID,95.3295,VALID,0.105969,VALID,23.361,VALID,309,VALID,0.121875,
2009-02-11, 01:49:04,VALID,1010.07,VALID,0,VALID,95.3143,VALID,0.105969,VALID,23.3805,VALID,309,VALID,0,
2009-02-11, 01:50:04,VALID,1010.09,VALID,0,VALID,95.3067,VALID,0.105969,VALID,23.361,VALID,316,VALID,0.303125,
2009-02-11, 01:51:04,VALID,1010.07,VALID,0,VALID,95.2609,VALID,0.105969,VALID,23.361,VALID,316,VALID,0,
2009-02-11, 01:52:04,VALID,1010.05,VALID,0,VALID,95.2533,VALID,0.105969,VALID,23.361,VALID,316,VALID,0,
2009-02-11, 01:53:04,VALID,1010.05,VALID,0,VALID,95.2304,VALID,0.105969,VALID,23.3203,VALID,316,VALID,0,
2009-02-11, 01:54:04,VALID,1010.03,VALID,0,VALID,95.2533,VALID,0.105969,VALID,23.3203,VALID,316,VALID,0,
2009-02-11, 01:55:04,VALID,1010.02,VALID,0,VALID,95.2685,VALID,0.105969,VALID,23.322,VALID,307,VALID,0.192188,
2009-02-11, 01:56:04,VALID,1010.03,VALID,0,VALID,95.2457,VALID,0.105969,VALID,23.322,VALID,8,VALID,0.352734,
2009-02-11, 01:57:04,VALID,1010,VALID,0,VALID,95.2533,VALID,0,VALID,23.3238,VALID,347,VALID,0.475,
2009-02-11, 01:58:04,VALID,1009.98,VALID,0,VALID,95.2457,VALID,0,VALID,23.3043,VALID,339,VALID,0.0269531,
2009-02-11, 01:59:04,VALID,1010,VALID,0,VALID,95.2228,VALID,0,VALID,23.2848,VALID,339,VALID,0.0410156,
2009-02-11, 02:00:04,VALID,1010,VALID,0,VALID,95.2304,VALID,0,VALID,23.3043,VALID,339,VALID,0.369531,
2009-02-11, 02:01:04,VALID,1009.98,VALID,0,VALID,95.238,VALID,0,VALID,23.2848,VALID,339,VALID,0.0398437,
2009-02-11, 02:02:04,VALID,1009.96,VALID,0,VALID,95.2457,VALID,0,VALID,23.2848,VALID,341,VALID,0.311328,
2009-02-11, 02:03:04,VALID,1009.98,VALID,0,VALID,95.2228,VALID,0,VALID,23.2654,VALID,317,VALID,0.549609,
2009-02-11, 02:04:04,VALID,1009.94,VALID,0,VALID,95.2228,VALID,0,VALID,23.2441,VALID,343,VALID,0.496484,
2009-02-11, 02:05:04,VALID,1009.97,VALID,0,VALID,95.2228,VALID,0,VALID,23.2459,VALID,347,VALID,0.312891,
2009-02-11, 02:06:04,VALID,1009.96,VALID,0,VALID,95.2457,VALID,0,VALID,23.2459,VALID,348,VALID,0,
2009-02-11, 02:07:04,VALID,1009.97,VALID,0,VALID,95.2609,VALID,0,VALID,23.2459,VALID,348,VALID,0.111719,
2009-02-11, 02:08:04,VALID,1009.94,VALID,0,VALID,95.2914,VALID,0,VALID,23.2246,VALID,323,VALID,0.328125,
2009-02-11, 02:09:04,VALID,1009.96,VALID,0,VALID,95.2762,VALID,0,VALID,23.2459,VALID,311,VALID,0.418359,
2009-02-11, 02:10:04,VALID,1009.93,VALID,0,VALID,95.2685,VALID,0.105969,VALID,23.2246,VALID,326,VALID,0.425391,
2009-02-11, 02:11:04,VALID,1009.94,VALID,0,VALID,95.238,VALID,0,VALID,23.2459,VALID,324,VALID,0.294531,
2009-02-11, 02:12:04,VALID,1009.93,VALID,0,VALID,95.238,VALID,0,VALID,23.2459,VALID,305,VALID,0.232812,
2009-02-11, 02:13:04,VALID,1009.94,VALID,0,VALID,95.2152,VALID,0,VALID,23.2654,VALID,305,VALID,0.434375,
2009-02-11, 02:14:04,VALID,1009.92,VALID,0,VALID,95.1542,VALID,0,VALID,23.2441,VALID,306,VALID,0.322656,
2009-02-11, 02:15:04,VALID,1009.89,VALID,0,VALID,95.0855,VALID,0,VALID,23.2654,VALID,306,VALID,0.0636719,
2009-02-11, 02:16:04,VALID,1009.89,VALID,0,VALID,95.0321,VALID,0,VALID,23.2246,VALID,312,VALID,0.401953,
2009-02-11, 02:17:04,VALID,1009.89,VALID,0,VALID,95.0321,VALID,0,VALID,23.2459,VALID,313,VALID,0,
2009-02-11, 02:18:04,VALID,1009.9,VALID,0,VALID,95.0093,VALID,0,VALID,23.2264,VALID,324,VALID,0.726953,
2009-02-11, 02:19:04,VALID,1009.89,VALID,0,VALID,95.0093,VALID,0,VALID,23.2264,VALID,340,VALID,0.424609,
2009-02-11, 02:20:04,VALID,1009.92,VALID,0,VALID,95.0169,VALID,0,VALID,23.2051,VALID,353,VALID,0.927344,
2009-02-11, 02:21:04,VALID,1009.88,VALID,0,VALID,94.994,VALID,0,VALID,23.2069,VALID,329,VALID,0.764063,
2009-02-11, 02:22:04,VALID,1009.9,VALID,0,VALID,95.0169,VALID,0,VALID,23.1874,VALID,329,VALID,0.313672,
2009-02-11, 02:23:04,VALID,1009.89,VALID,0,VALID,95.0321,VALID,0,VALID,23.1874,VALID,339,VALID,0.540234,
2009-02-11, 02:24:04,VALID,1009.86,VALID,0,VALID,95.0779,VALID,0,VALID,23.2069,VALID,334,VALID,0,
2009-02-11, 02:25:04,VALID,1009.87,VALID,0,VALID,95.0855,VALID,0,VALID,23.1662,VALID,341,VALID,0.00703125,
2009-02-11, 02:26:04,VALID,1009.87,VALID,0,VALID,95.055,VALID,0,VALID,23.1662,VALID,310,VALID,0.552344,
2009-02-11, 02:27:04,VALID,1009.87,VALID,0,VALID,95.0855,VALID,0,VALID,23.1467,VALID,295,VALID,0.491797,
2009-02-11, 02:28:04,VALID,1009.87,VALID,0,VALID,95.055,VALID,0,VALID,23.1679,VALID,296,VALID,0.164844,
2009-02-11, 02:29:04,VALID,1009.86,VALID,0,VALID,95.0626,VALID,0,VALID,23.1679,VALID,318,VALID,0.113281,
2009-02-11, 02:30:04,VALID,1009.87,VALID,0,VALID,95.0398,VALID,0,VALID,23.1679,VALID,319,VALID,0.0902344,
2009-02-11, 02:31:04,VALID,1009.86,VALID,0,VALID,95.0474,VALID,0,VALID,23.1679,VALID,334,VALID,0.332812,
2009-02-11, 02:32:04,VALID,1009.86,VALID,0,VALID,95.0474,VALID,0,VALID,23.1272,VALID,334,VALID,0.0949219,
2009-02-11, 02:33:04,VALID,1009.85,VALID,0,VALID,95.0169,VALID,0,VALID,23.1485,VALID,334,VALID,0,
2009-02-11, 02:34:04,VALID,1009.86,VALID,0,VALID,95.055,VALID,0,VALID,23.1485,VALID,334,VALID,0.214844,
2009-02-11, 02:35:04,VALID,1009.87,VALID,0,VALID,95.0703,VALID,0,VALID,23.129,VALID,351,VALID,0.236328,
2009-02-11, 02:36:04,VALID,1009.86,VALID,0,VALID,95.0626,VALID,0,VALID,23.129,VALID,348,VALID,0.590625,
2009-02-11, 02:37:04,VALID,1009.86,VALID,0,VALID,95.0398,VALID,0,VALID,23.1485,VALID,343,VALID,0.248437,
2009-02-11, 02:38:04,VALID,1009.83,VALID,0,VALID,94.9711,VALID,0,VALID,23.129,VALID,343,VALID,0.166797,
2009-02-11, 02:39:04,VALID,1009.82,VALID,0,VALID,94.9483,VALID,0,VALID,23.129,VALID,335,VALID,0.329688,
2009-02-11, 02:40:04,VALID,1009.83,VALID,0,VALID,94.9864,VALID,0,VALID,23.129,VALID,347,VALID,0.316797,
2009-02-11, 02:41:04,VALID,1009.8,VALID,0,VALID,94.9864,VALID,0,VALID,23.1095,VALID,347,VALID,0,
2009-02-11, 02:42:04,VALID,1009.81,VALID,0,VALID,94.9864,VALID,0,VALID,23.1077,VALID,343,VALID,0.474609,
2009-02-11, 02:43:04,VALID,1009.8,VALID,0,VALID,94.9483,VALID,0.105969,VALID,23.0883,VALID,331,VALID,0.163672,
2009-02-11, 02:44:04,VALID,1009.81,VALID,0,VALID,94.933,VALID,0.105969,VALID,23.0883,VALID,345,VALID,0.223438,
2009-02-11, 02:45:04,VALID,1009.81,VALID,0,VALID,95.0016,VALID,0.105969,VALID,23.0883,VALID,357,VALID,0.449609,
2009-02-11, 02:46:04,VALID,1009.79,VALID,0,VALID,95.0093,VALID,0.105969,VALID,23.0883,VALID,359,VALID,0.00195313,
2009-02-11, 02:47:04,VALID,1009.79,VALID,0,VALID,95.0093,VALID,0.105969,VALID,23.0688,VALID,359,VALID,0.000390625,
2009-02-11, 02:48:04,VALID,1009.79,VALID,0,VALID,95.0321,VALID,0.105969,VALID,23.0493,VALID,337,VALID,0.0691406,
2009-02-11, 02:49:04,VALID,1009.78,VALID,0,VALID,95.0245,VALID,0.105969,VALID,23.0493,VALID,337,VALID,0.0523437,
2009-02-11, 02:50:04,VALID,1009.79,VALID,0,VALID,95.0398,VALID,0.105969,VALID,23.0298,VALID,337,VALID,0,
2009-02-11, 02:51:04,VALID,1009.79,VALID,0,VALID,95.0703,VALID,0.105969,VALID,23.0103,VALID,337,VALID,0,
2009-02-11, 02:52:04,VALID,1009.75,VALID,0,VALID,95.1313,VALID,0.105969,VALID,22.9909,VALID,337,VALID,0.00351562,
2009-02-11, 02:53:04,VALID,1009.78,VALID,0,VALID,95.177,VALID,0.105969,VALID,22.9519,VALID,337,VALID,0.0480469,
2009-02-11, 02:54:04,VALID,1009.76,VALID,0,VALID,95.2457,VALID,0.105969,VALID,22.9519,VALID,337,VALID,0,
2009-02-11, 02:55:04,VALID,1009.78,VALID,0,VALID,95.3524,VALID,0.105969,VALID,22.9112,VALID,337,VALID,0,
2009-02-11, 02:56:04,VALID,1009.74,VALID,0,VALID,95.4211,VALID,0.105969,VALID,22.9324,VALID,337,VALID,0,
2009-02-11, 02:57:04,VALID,1009.74,VALID,0,VALID,95.4744,VALID,0,VALID,22.9147,VALID,337,VALID,0,
2009-02-11, 02:58:04,VALID,1009.7,VALID,0,VALID,95.5278,VALID,0,VALID,22.8935,VALID,337,VALID,0,
2009-02-11, 02:59:04,VALID,1009.7,VALID,0,VALID,95.5583,VALID,0,VALID,22.9147,VALID,337,VALID,0.0839844,
2009-02-11, 03:00:04,VALID,1009.68,VALID,0,VALID,95.5812,VALID,0,VALID,22.9147,VALID,337,VALID,0,
2009-02-11, 03:01:04,VALID,1009.67,VALID,0,VALID,95.5964,VALID,0,VALID,22.8757,VALID,337,VALID,0,
2009-02-11, 03:02:04,VALID,1009.67,VALID,0,VALID,95.5812,VALID,0,VALID,22.8562,VALID,337,VALID,0.33125,
2009-02-11, 03:03:04,VALID,1009.66,VALID,0,VALID,95.6117,VALID,0,VALID,22.8562,VALID,337,VALID,0.101953,
2009-02-11, 03:04:04,VALID,1009.66,VALID,0,VALID,95.6498,VALID,0,VALID,22.8562,VALID,337,VALID,0.295703,
2009-02-11, 03:05:04,VALID,1009.64,VALID,0,VALID,95.7261,VALID,0,VALID,22.8368,VALID,344,VALID,0.221094,
2009-02-11, 03:06:04,VALID,1009.65,VALID,0,VALID,95.7337,VALID,0,VALID,22.8562,VALID,344,VALID,0.148047,
2009-02-11, 03:07:04,VALID,1009.67,VALID,0,VALID,95.7718,VALID,0,VALID,22.8368,VALID,344,VALID,0.125,
2009-02-11, 03:08:04,VALID,1009.64,VALID,0,VALID,95.7947,VALID,0,VALID,22.8368,VALID,344,VALID,0,
2009-02-11, 03:09:04,VALID,1009.65,VALID,0,VALID,95.8328,VALID,0,VALID,22.8368,VALID,344,VALID,0,
2009-02-11, 03:10:04,VALID,1009.65,VALID,0,VALID,95.8252,VALID,0,VALID,22.8173,VALID,344,VALID,0,
2009-02-11, 03:11:04,VALID,1009.67,VALID,0,VALID,95.8328,VALID,0,VALID,22.8173,VALID,344,VALID,0,
2009-02-11, 03:12:04,VALID,1009.65,VALID,0,VALID,95.8328,VALID,0,VALID,22.8173,VALID,344,VALID,0,
2009-02-11, 03:13:04,VALID,1009.69,VALID,0,VALID,95.8633,VALID,0,VALID,22.7978,VALID,342,VALID,0.190234,
2009-02-11, 03:14:04,VALID,1009.68,VALID,0,VALID,95.9167,VALID,0,VALID,22.7961,VALID,342,VALID,0.0210938,
2009-02-11, 03:15:04,VALID,1009.7,VALID,0,VALID,95.9167,VALID,0,VALID,22.7978,VALID,342,VALID,0,
2009-02-11, 03:16:04,VALID,1009.69,VALID,0,VALID,95.9244,VALID,0,VALID,22.7978,VALID,342,VALID,0,
2009-02-11, 03:17:04,VALID,1009.7,VALID,0,VALID,95.9472,VALID,0,VALID,22.7783,VALID,342,VALID,0,
2009-02-11, 03:18:04,VALID,1009.68,VALID,0,VALID,95.9625,VALID,0,VALID,22.7766,VALID,342,VALID,0,
2009-02-11, 03:19:04,VALID,1009.69,VALID,0,VALID,95.9701,VALID,0,VALID,22.7783,VALID,342,VALID,0,
2009-02-11, 03:20:04,VALID,1009.72,VALID,0,VALID,96.0006,VALID,0,VALID,22.7978,VALID,345,VALID,0,
2009-02-11, 03:21:04,VALID,1009.7,VALID,0,VALID,95.9854,VALID,0,VALID,22.7783,VALID,345,VALID,0,
2009-02-11, 03:22:04,VALID,1009.75,VALID,0,VALID,95.9625,VALID,0,VALID,22.7783,VALID,345,VALID,0,
2009-02-11, 03:23:04,VALID,1009.71,VALID,0,VALID,95.9777,VALID,0,VALID,22.7376,VALID,345,VALID,0,
2009-02-11, 03:24:04,VALID,1009.73,VALID,0,VALID,95.993,VALID,0,VALID,22.7588,VALID,345,VALID,0,
2009-02-11, 03:25:04,VALID,1009.74,VALID,0,VALID,95.993,VALID,0,VALID,22.7588,VALID,345,VALID,0,
2009-02-11, 03:26:04,VALID,1009.74,VALID,0,VALID,96.0235,VALID,0,VALID,22.7588,VALID,345,VALID,0,
2009-02-11, 03:27:04,VALID,1009.75,VALID,0,VALID,96.0387,VALID,0,VALID,22.7571,VALID,345,VALID,0,
2009-02-11, 03:28:04,VALID,1009.79,VALID,0,VALID,96.0616,VALID,0.105969,VALID,22.7783,VALID,345,VALID,0,
2009-02-11, 03:29:04,VALID,1009.78,VALID,0,VALID,96.0692,VALID,0.105969,VALID,22.7376,VALID,345,VALID,0,
2009-02-11, 03:30:04,VALID,1009.8,VALID,0,VALID,96.1226,VALID,0.105969,VALID,22.7571,VALID,345,VALID,0,
2009-02-11, 03:31:04,VALID,1009.79,VALID,0,VALID,96.1379,VALID,0.105969,VALID,22.7571,VALID,345,VALID,0,
2009-02-11, 03:32:04,VALID,1009.79,VALID,0,VALID,96.1455,VALID,0.105969,VALID,22.7571,VALID,344,VALID,0,
2009-02-11, 03:33:04,VALID,1009.78,VALID,0,VALID,96.1302,VALID,0.105969,VALID,22.7571,VALID,345,VALID,0,
2009-02-11, 03:34:04,VALID,1009.76,VALID,0,VALID,96.1531,VALID,0.105969,VALID,22.7376,VALID,345,VALID,0,
2009-02-11, 03:35:04,VALID,1009.76,VALID,0,VALID,96.1531,VALID,0.105969,VALID,22.7376,VALID,345,VALID,0,
2009-02-11, 03:36:04,VALID,1009.75,VALID,0,VALID,96.1684,VALID,0,VALID,22.7571,VALID,344,VALID,0,
2009-02-11, 03:37:04,VALID,1009.74,VALID,0,VALID,96.1531,VALID,0.105969,VALID,22.7571,VALID,344,VALID,0,
2009-02-11, 03:38:04,VALID,1009.74,VALID,0,VALID,96.1913,VALID,0.105969,VALID,22.7376,VALID,344,VALID,0,
2009-02-11, 03:39:04,VALID,1009.73,VALID,0,VALID,96.1913,VALID,0.105969,VALID,22.7571,VALID,344,VALID,0,
2009-02-11, 03:40:04,VALID,1009.74,VALID,0,VALID,96.2141,VALID,0,VALID,22.7571,VALID,344,VALID,0,
2009-02-11, 03:41:04,VALID,1009.73,VALID,0,VALID,96.2141,VALID,0.105969,VALID,22.7571,VALID,344,VALID,0,
2009-02-11, 03:42:04,VALID,1009.73,VALID,0,VALID,96.1913,VALID,0,VALID,22.7588,VALID,344,VALID,0,
2009-02-11, 03:43:04,VALID,1009.72,VALID,0,VALID,96.1608,VALID,0,VALID,22.7588,VALID,345,VALID,0,
2009-02-11, 03:44:04,VALID,1009.74,VALID,0,VALID,96.1608,VALID,0,VALID,22.7588,VALID,344,VALID,0,